Torna al catalogo

STARLINK-38029

AttivoComunicazioniSSO
NORAD 69752·PAYLOAD·🇺🇸 United States

Lanciato Jul 2, 2026 da Vandenberg Space Force Base

Loading…

Prossimi Passaggi (prossime 24 ore)

TLE

AggiornatoSource: CelesTrak SupGP

Epoca: Sep 15, 2026, 04:07 UTC

1 69752C 26150P   26258.17201389 -.00082539  00000+0 -25632-2 0  2583
2 69752  97.2850  97.2318 0001801  91.9536 250.0643 15.33468184    19

Traccia STARLINK-38029 in tempo reale con AllMySat

Download on the App Store